Zurück zum Katalog

STARLINK-35860

AktivKommunikationVLEO
NORAD 66881·PAYLOAD·🇺🇸 United States

Gestartet Dec 4, 2025 von Vandenberg Space Force Base

Loading…

Nächste Überflüge (nächste 24 Stunden)

TLE

AktuellSource: CelesTrak SupGP

Epoche: Sep 14, 2026, 15:45 UTC

1 66881C 25283D   26257.65673611  .00000930  00000+0  27483-4 0  2572
2 66881  53.1572 224.7403 0001411  88.7076 131.2527 15.34375813    11

Verfolge STARLINK-35860 in Echtzeit mit AllMySat

Download on the App Store